Regional Weather Roundup
Issued by NWS Albany, NY

Home | Current Version | Previous Version | Graphics & Text | Print | Product List | Glossary Off
Versions: 1 2 3 4 5 6 7 8 9 10 11 12 13 14 15 16 17 18 19 20 21 22 23 24 25 26 27 28 29 30 31 32 33 34 35 36 37 38 39 40 41 42 43 44 45 46 47 48 49 50

000
ASUS41 KALY 171910
RWRALY

NEW YORK STATE HOURLY WEATHER ROUNDUP
NATIONAL WEATHER SERVICE ALBANY NY
200 PM EST SAT FEB 17 2018

NOTE: "FAIR" INDICATES FEW OR NO CLOUDS BELOW 12,000 FEET WITH NO
SIGNIFICANT WEATHER AND/OR NO OBSTRUCTIONS TO VISIBILITY.

NYZ032-033-038>043-046>054-057>066-NYZ062>081-082-084-172000-
EAST


CITY           SKY/WX    TMP DP  RH WIND       PRES   REMARKS
ALBANY         CLOUDY    34  14  43 S7        30.26F WCI  28
GLENS FALLS    FAIR      30  15  53 SE8       30.26F WCI  22
POUGHKEEPSIE   FAIR      38  15  39 VRB3      30.26F
NEWBURGH       PTSUNNY   36  16  44 S10G18    30.27F WCI  28
MONTGOMERY     FAIR      37  15  40 S10       30.26F WCI  30
WHITE PLAINS   FAIR      35  20  54 SE13      30.28F WCI  26
ISLIP          PTSUNNY   36  20  52 SE10      30.33F WCI  28
NEW YORK CITY  PTSUNNY   38  20  48 SE14      30.32F WCI  30
CENTRAL PARK   PTSUNNY   36  20  52 MISG      30.34F
$$

NYZ005>009-017-018-044>046-055-056-172000-
CENTRAL


CITY           SKY/WX    TMP DP  RH WIND       PRES   REMARKS
FULTON         FAIR      31  16  54 SE6       30.14F WCI  25
SYRACUSE       CLOUDY    34  14  43 SE9       30.14F WCI  27
ROME           FAIR      32  16  51 E8        30.18F WCI  25
ELMIRA         FAIR      33  19  56 SE5       30.11F WCI  29
BINGHAMTON     FAIR      30  11  45 S12       30.09F WCI  20
MONTICELLO     FAIR      31  17  56 S13       30.22R WCI  21
$$

NYZ026>034-041>043-087-172000-
NORTH


CITY           SKY/WX    TMP DP  RH WIND       PRES   REMARKS
WATERTOWN      FAIR      31  16  54 VRB6      30.15F WCI  25
FORT DRUM      NOT AVBL
OGDENSBURG     FAIR      33  18  54 SW8       30.17F WCI  25
MASSENA        FAIR      29  13  51 S10       30.20F WCI  20
SARANAC LAKE   FAIR      27   7  42 SW14      30.10F WCI  16
PLATTSBURGH    FAIR      30  15  53 SE14      30.22F WCI  19
$$

NYZ001>004-010>016-019>021-085-172000-
WEST


CITY           SKY/WX    TMP DP  RH WIND       PRES   REMARKS
NIAGARA FALLS  FAIR      31  14  49 S12       30.07F WCI  22
BUFFALO        CLOUDY    30  15  53 S7        30.07F WCI  23
DUNKIRK        FAIR      30  15  53 S8        30.09F WCI  22
JAMESTOWN        N/A    N/A N/A N/A MISG        N/A
WELLSVILLE     FAIR      29  12  49 S10G23    30.03F WCI  20
ROCHESTER      CLOUDY    31  15  52 W3        30.11F
PENN YAN       FAIR      32  13  45 S8        30.09F WCI  25
$$

             KEY
       WCI = WIND CHILL INDEX
       VSB = VISIBILITY
       HX  = HEAT INDEX
$$



USA.gov is the U.S. government's official web portal to all federal, state and local government web resources and services.